Starlink 35420

operational
NORAD ID: 66261 Int'l Des: 2025-245 Owner: SPXS Country: US Constellation: starlink
LEOCIRCULAR

关于 Starlink 35420

正在加载描述...

实时位置

正在加载3D地球...

即将过境

高度历史

Altitude vs Time

uPlot chart will show altitude changes over time

两行轨道根数

1 66261C 25245AC 25303.07687500 .00478450 00000+0 74853-3 0 3031
2 66261 53.1599 182.3328 0004548 307.0030 137.5926 16.02782607 19
Epoch: Oct 30, 2025 • Age: 25 hours

当前状态

高度 268.8 km
速度 7.75 km/s
星下点 29.91°N, 75.35°W
发射日期 Oct 29, 2025
运行时间 2 days
类型 internet

技术详情

分类 Payload
质量 575.00 kg
干质量 530.00 kg
总质量 575.00 kg
长度 0.30 m
直径 4.10 m
跨度 29.00 m
形状 Box + pan
制造商 SPXS
平台类型 Starlink V2MO
阶段状态 In Orbit
所有者/国家 SPXS/US

大型星座

Loading constellations...